This is the latest recevied weather packets stored in our database for station/object WE0DX-1. If no packets are shown the sender has not sent any weather packets the latest 1 day(s).
| Time | Temp. | Humidity | Pressure | Rain* | Wind** | Luminosity | Snow |
|---|---|---|---|---|---|---|---|
| 1778042488 | 10° C | 58% | 1014.2 hPa | 1.78 mm | 0.89 m/s, 15° | 0 W/m² | - |
| 1778042185 | 10° C | 62% | 1014.4 hPa | 0 mm | 1.79 m/s, 293° | 0 W/m² | - |
| 1778041883 | 10.56° C | 60% | 1014.5 hPa | 0 mm | 0 m/s | 0 W/m² | - |
| 1778041582 | 10° C | 61% | 1014.6 hPa | 1.27 mm | 0.89 m/s, 21° | 0 W/m² | - |
| 1778041279 | 10.56° C | 58% | 1014.2 hPa | 1.27 mm | 1.34 m/s, 322° | 0 W/m² | - |
| 1778040978 | 10.56° C | 61% | 1014.2 hPa | 0 mm | 0 m/s | 0 W/m² | - |
| 1778040674 | 10.56° C | 64% | 1013.9 hPa | 0 mm | 0.89 m/s, 335° | 0 W/m² | - |
| 1778040372 | 10.56° C | 59% | 1013.9 hPa | 0 mm | 0 m/s | 0 W/m² | - |
| 1778040069 | 10.56° C | 58% | 1013.7 hPa | 0 mm | 0 m/s | 0 W/m² | - |
| 1778039765 | 10.56° C | 57% | 1013.7 hPa | 0 mm | 0 m/s | 0 W/m² | - |
| 1778039461 | 10° C | 71% | 1013.9 hPa | 0 mm | 0 m/s | 0 W/m² | - |
| 1778039159 | 10° C | 69% | 1013.4 hPa | 0 mm | 0 m/s | 0 W/m² | - |
| 1778038856 | 10.56° C | 67% | 1013.5 hPa | 0 mm | 0.45 m/s, 356° | 0 W/m² | - |
| 1778038553 | 10.56° C | 65% | 1013.4 hPa | 0 mm | 0 m/s | 0 W/m² | - |
| 1778038250 | 10.56° C | 64% | 1013 hPa | 0 mm | 0 m/s | 0 W/m² | - |
| 1778037948 | 10.56° C | 64% | 1013 hPa | 0 mm | 0 m/s | 0 W/m² | - |
| 1778037644 | 10.56° C | 65% | 1012.8 hPa | 0 mm | 0 m/s | 0 W/m² | - |
| 1778037342 | 10.56° C | 63% | 1013 hPa | 0 mm | 0 m/s | 0 W/m² | - |
| 1778037038 | 10.56° C | 65% | 1012.7 hPa | 0 mm | 0 m/s | 0 W/m² | - |
| 1778036737 | 10.56° C | 64% | 1012.5 hPa | 0 mm | 0 m/s | 0 W/m² | - |
| 1778036434 | 10.56° C | 64% | 1012.5 hPa | 0 mm | 0 m/s | 0 W/m² | - |
| 1778036131 | 10.56° C | 64% | 1012.4 hPa | 0 mm | 0.45 m/s, 39° | 0 W/m² | - |
| 1778035826 | 10.56° C | 64% | 1012.3 hPa | 0 mm | 0.45 m/s, 25° | 0 W/m² | - |
| 1778035524 | 10.56° C | 64% | 1012.3 hPa | 0 mm | 0.45 m/s, 41° | 0 W/m² | - |
| 1778035220 | 10.56° C | 63% | 1012.4 hPa | 0 mm | 0.45 m/s, 30° | 0 W/m² | - |
* Rain latest hour (hover to see other rain measurements)
** Current wind speed in m/s (hover to see current wind gust speed)